Wind_Speed
22 21 21 20 19 17 16 15 14 13 12 11 9 7 7 7 6 6 6 6 6 4 3 2 1 2 4 6 7 8 9 10 11 12 12 13 13 14 15 15 16 17 18 19 20 21 21 22 23 24 24 25 26 26 27 28 29 30 31 31 31 32 33 34 34 35 38 39 40 42 42 43 45 45 46 46 46 45 46 47 49 49 47 46 50 52 47
22 21 20 18 17 15 14 14 13 12 10 9 8 7 7 7 7 6 6 6 5 4 3 2 2 3 5 6 7 8 9 10 11 12 12 13 14 14 15 16 17 17 18 19 19 20 21 22 22 23 25 25 26 27 27 28 29 30 31 31 32 33 34 36 36 37 39 41 42 43 44 44 45 46 47 46 46 45 45 46 48 50 49 45 47 51 49
22 20 18 16 15 14 13 12 11 10 8 8 7 7 7 6 6 6 5 5 4 3 3 3 4 5 6 7 8 8 9 10 11 12 13 13 14 15 15 16 17 17 18 19 19 20 21 22 22 23 24 25 26 27 28 29 29 30 31 32 33 34 36 38 38 39 42 44 45 46 46 45 45 47 47 47 46 45 44 45 47 50 50 46 45 50 50
19 17 16 14 13 13 12 11 10 8 8 7 7 7 6 6 5 5 4 4 3 3 4 4 5 6 7 8 9 9 10 11 12 13 14 14 15 16 16 17 18 18 19 19 20 21 22 23 23 24 24 25 26 27 28 29 30 30 32 33 34 35 36 38 40 39 41 43 44 45 45 44 44 46 47 47 46 45 43 42 44 48 50 46 45 49 51
17 15 14 13 12 12 11 10 8 8 7 7 6 6 5 5 4 4 4 3 3 4 4 5 6 7 8 9 10 11 12 13 13 14 15 16 16 17 18 18 19 20 20 21 22 23 23 24 25 25 26 27 27 28 29 30 31 32 33 35 36 37 37 39 40 39 39 42 43 43 44 43 43 45 47 46 46 44 42 41 43 47 49 47 46 48 52
15 13 12 11 11 11 10 9 8 7 6 6 5 5 5 4 4 4 4 4 4 5 5 6 7 8 9 10 11 12 13 14 15 16 17 18 18 19 20 21 21 22 23 23 24 25 26 26 27 28 28 29 30 30 31 32 33 34 35 36 37 39 39 40 41 39 38 42 44 43 44 43 42 44 46 46 45 44 42 41 42 46 48 48 47 48 51
12 10 10 10 10 10 9 8 7 6 6 5 5 4 4 4 4 4 4 5 5 6 7 8 9 9 11 12 13 14 15 16 17 18 19 20 20 21 22 23 24 24 25 26 26 27 28 29 29 30 31 32 32 33 33 34 35 36 37 38 39 41 41 41 43 40 37 40 44 43 43 42 41 43 45 46 45 44 42 41 42 46 48 47 48 49 51
10 9 9 10 9 9 8 7 6 5 5 5 4 4 4 4 4 5 5 6 6 7 8 9 10 11 12 14 15 16 17 18 19 20 21 22 22 23 24 25 26 26 27 28 28 29 30 30 31 32 32 33 34 34 35 35 36 37 39 39 40 41 42 42 44 43 39 40 43 43 43 42 41 42 44 45 45 44 43 41 43 47 48 47 49 51 52
8 8 9 9 8 8 7 6 5 4 4 4 5 5 5 5 6 6 7 7 8 9 10 11 12 13 14 16 17 18 19 20 21 21 23 24 25 25 26 27 28 28 29 30 30 31 31 32 32 33 34 34 35 35 36 36 37 38 39 40 40 42 43 43 45 45 41 41 43 43 43 42 41 42 44 45 45 45 43 42 43 47 48 48 49 53 55
7 7 7 7 7 6 6 5 4 4 5 5 5 6 6 7 7 8 9 9 10 11 12 13 14 15 16 17 18 19 20 22 23 23 24 25 26 27 28 29 29 30 31 31 31 32 33 33 33 34 34 35 35 36 36 36 38 38 39 40 41 42 43 44 45 46 43 43 45 45 44 42 41 43 45 45 46 47 45 42 43 46 48 48 50 54 57
6 6 6 6 5 5 5 5 5 5 6 6 7 7 8 8 9 10 11 12 12 13 14 15 16 17 18 19 20 21 22 23 24 25 26 26 28 29 29 30 31 31 32 32 33 33 33 34 34 34 35 35 36 36 36 37 38 38 39 41 41 42 44 44 46 46 45 44 45 46 44 42 42 45 46 46 46 48 47 43 43 45 47 49 51 54 58
5 5 5 4 4 4 5 5 6 6 7 7 8 8 9 10 11 12 13 14 14 15 16 17 18 19 20 21 22 23 24 25 26 27 28 28 29 30 30 31 32 32 32 33 33 34 34 34 35 35 35 36 36 36 37 37 37 38 39 41 42 43 44 44 45 46 46 45 45 46 44 42 43 46 47 46 46 48 48 44 42 44 48 50 52 56 58
4 4 3 3 3 3 4 6 7 8 8 9 10 10 11 12 13 14 14 16 17 17 18 19 20 21 22 23 24 25 26 27 27 28 29 30 31 31 32 32 33 33 33 34 34 34 35 35 36 36 36 36 36 37 37 37 38 38 39 40 42 43 43 44 45 46 46 45 46 47 45 42 42 46 47 47 47 48 49 45 41 44 49 51 54 58 59
3 2 2 2 3 3 5 6 7 8 9 10 11 11 12 12 13 14 15 16 17 18 19 20 21 22 23 24 25 26 27 28 29 30 30 31 32 33 33 34 34 35 35 35 36 36 37 37 37 37 37 37 37 37 37 38 38 38 39 40 41 42 43 44 45 45 46 47 46 47 46 43 44 48 49 48 48 49 51 47 41 44 51 53 56 59 60
2 2 2 3 4 4 5 6 7 7 8 9 9 10 11 11 12 13 14 15 16 18 19 20 21 22 24 25 26 27 28 29 30 31 31 32 34 34 35 35 36 36 37 37 38 38 38 39 39 39 38 38 38 38 38 38 38 38 39 40 40 42 42 44 45 45 46 48 48 48 47 46 48 51 51 49 49 50 52 50 46 47 52 55 58 61 60
3 3 3 4 4 5 5 6 7 7 8 8 9 10 10 11 12 13 14 16 17 18 19 21 22 24 25 26 28 29 30 30 31 32 33 34 35 35 36 37 37 38 38 39 39 40 40 40 40 40 40 40 40 39 39 39 39 39 39 40 40 41 42 43 44 44 45 47 48 48 47 46 49 51 50 50 50 51 53 53 50 50 54 58 61 62 61
3 3 3 4 4 4 5 6 6 7 8 8 9 10 11 12 13 14 16 17 18 20 21 23 24 26 27 29 30 31 32 32 33 34 35 35 36 36 37 37 38 38 39 39 40 40 40 40 40 40 40 40 40 40 40 40 40 40 40 40 41 41 42 43 44 44 45 47 48 48 46 46 49 51 49 50 51 52 54 55 54 54 58 61 63 63 61
2 2 2 3 3 4 5 5 6 7 8 9 10 12 12 14 16 17 19 20 21 23 25 26 27 29 30 31 32 33 34 34 34 35 35 36 37 37 37 38 38 38 38 39 39 40 40 40 40 40 39 39 39 40 40 40 40 40 40 41 41 42 43 43 44 45 46 47 48 48 46 46 48 49 49 50 52 53 55 57 57 58 61 63 64 63 61
3 3 3 4 4 5 6 7 8 9 10 12 13 14 15 17 19 21 22 23 25 26 28 29 30 32 33 34 34 35 35 35 35 35 35 36 36 36 37 37 37 37 38 38 38 39 38 38 38 38 38 37 38 38 38 39 39 39 40 41 42 42 44 45 46 47 48 48 49 49 47 46 47 48 48 50 52 54 56 58 58 59 62 64 64 63 62
3 3 4 5 6 7 8 9 11 12 13 15 16 18 19 21 23 24 26 27 28 29 31 32 33 35 35 36 36 36 35 35 35 35 35 34 34 35 35 35 35 35 36 36 36 36 35 35 36 36 36 36 37 37 38 38 37 37 39 41 41 42 45 47 47 48 48 48 48 48 47 46 46 48 49 50 52 55 57 59 59 60 62 64 64 63 63
4 6 7 8 9 10 12 13 14 15 16 18 19 21 22 24 26 27 29 30 31 33 34 35 35 36 35 35 35 35 34 34 33 33 32 32 32 32 32 32 32 32 33 33 33 33 33 33 34 34 35 36 36 37 37 37 36 36 38 40 40 42 45 47 47 47 47 46 45 44 45 46 46 47 48 49 52 55 59 61 61 62 63 65 66 65 65
8 9 10 11 12 13 14 15 16 17 18 19 21 23 25 26 28 30 31 33 33 34 34 34 33 33 32 32 32 31 31 30 30 29 29 28 29 29 29 30 30 30 30 31 31 31 32 32 33 33 34 35 35 36 37 38 37 37 38 39 41 43 45 46 44 43 43 42 41 41 43 44 45 46 48 50 53 56 59 62 63 64 64 65 66 66 66
11 12 13 14 14 15 15 16 17 18 19 21 23 25 27 29 31 32 33 34 33 32 31 29 29 28 28 27 27 27 27 26 26 26 26 26 27 27 27 28 28 28 29 29 30 30 31 31 32 33 33 35 35 36 37 37 38 38 38 39 41 42 43 42 41 40 39 38 38 42 44 43 44 46 49 52 55 57 60 62 63 64 64 64 66 67 67
12 13 14 14 14 15 16 16 17 19 22 24 26 28 30 31 32 32 31 30 28 26 25 25 24 24 24 24 24 24 24 23 23 24 24 25 26 26 26 27 27 27 28 28 29 30 31 31 32 33 34 35 36 36 36 37 37 37 38 39 40 39 39 40 39 39 39 38 39 43 45 44 44 47 50 54 57 59 61 63 63 64 65 66 67 68 69
13 13 14 14 15 15 16 17 19 21 24 26 28 30 31 31 29 27 25 24 23 22 22 22 21 21 21 22 22 22 22 22 23 24 25 25 26 26 26 26 27 27 28 29 29 30 31 32 32 33 33 34 34 33 34 35 35 36 37 38 39 38 39 41 41 40 42 43 43 46 47 46 46 49 53 56 58 59 61 63 64 66 67 68 69 70 71
13 14 14 14 15 16 17 19 21 23 25 28 29 29 28 25 23 21 20 20 19 19 19 20 20 20 20 21 21 22 22 23 24 24 25 25 25 26 26 26 27 27 28 28 29 30 30 30 31 31 31 31 31 30 31 33 35 36 37 38 39 40 42 44 45 45 45 47 48 50 51 49 48 51 54 57 59 61 63 64 65 67 68 69 70 70 70
13 13 13 13 15 17 19 20 22 24 27 27 26 24 22 20 19 18 17 17 18 18 18 19 19 20 20 20 21 21 22 23 23 24 24 25 25 25 25 26 26 26 26 27 27 28 28 28 28 29 30 30 29 29 31 32 35 38 39 39 41 43 44 46 49 49 49 50 51 54 55 55 54 56 58 60 62 64 65 66 67 69 70 71 71 71 70
12 13 14 15 18 20 21 21 22 24 25 24 22 21 19 17 16 16 16 16 17 18 18 19 19 19 19 20 20 21 21 21 22 22 23 23 24 24 24 24 25 25 25 26 26 27 27 28 28 29 30 30 30 31 32 34 37 40 41 41 43 44 46 48 50 51 52 52 54 55 57 58 59 60 61 63 65 66 68 69 70 71 72 73 73 72 71
13 15 16 18 21 22 21 20 21 22 22 21 20 19 18 16 16 16 16 16 17 17 18 18 19 19 19 19 20 20 20 21 22 22 22 23 23 24 24 24 25 25 25 26 27 28 28 29 29 31 32 33 33 34 35 36 38 41 43 44 45 46 46 48 50 51 52 53 55 56 58 60 61 62 64 65 67 69 70 71 72 72 72 72 71 70 69
15 16 18 20 23 23 21 20 20 20 20 20 20 18 18 17 17 17 17 17 18 18 18 19 19 19 19 20 21 21 21 22 22 23 23 24 24 25 26 26 26 26 27 27 29 29 30 31 32 33 35 36 38 39 39 39 39 41 43 44 45 46 46 47 50 52 54 55 57 58 60 61 63 64 65 66 69 70 71 72 72 72 72 70 69 67 66
17 18 19 22 24 23 20 19 19 19 20 20 19 19 19 18 18 18 18 18 19 19 19 20 20 21 21 21 22 22 23 23 24 24 24 25 25 26 27 27 28 28 28 29 30 31 33 33 34 35 36 38 40 41 42 41 40 40 41 43 43 44 45 47 50 52 54 56 58 59 60 62 64 65 65 66 69 71 72 72 72 72 71 69 68 68 67
19 20 22 24 24 22 20 19 19 20 21 21 20 19 19 19 19 19 19 19 20 21 21 22 22 22 22 23 23 23 24 24 25 26 26 26 26 27 28 28 29 29 29 30 30 32 33 34 35 36 37 38 40 41 42 42 42 41 42 42 43 44 46 48 50 52 54 57 60 61 60 61 64 67 68 69 70 71 72 71 71 71 70 70 69 68 69
21 23 24 24 23 21 19 19 19 20 21 21 21 21 21 20 21 21 21 21 22 23 23 23 23 23 23 23 23 23 24 25 26 26 27 27 27 27 28 29 29 30 30 30 31 32 33 34 35 36 37 39 40 42 43 43 44 44 44 45 46 47 49 50 52 54 56 59 62 64 65 65 66 68 70 71 71 71 71 71 72 72 72 72 72 72 72
22 23 24 23 22 21 20 19 20 21 21 21 21 21 21 21 22 22 23 23 24 24 24 24 24 24 24 24 24 24 24 24 25 26 27 27 27 27 28 28 29 30 30 31 32 33 34 35 36 37 39 41 42 43 44 45 45 45 46 47 49 51 53 54 56 57 59 61 63 66 68 69 70 71 71 72 72 72 73 73 74 75 75 75 75 76 76
23 23 23 23 22 21 20 20 20 21 21 21 22 22 22 23 23 23 24 24 24 24 24 24 24 24 24 24 24 24 24 24 25 26 26 27 27 28 28 29 30 31 31 32 33 34 35 36 37 38 41 43 45 46 47 47 47 48 49 51 53 55 57 58 59 60 62 64 66 68 70 71 73 73 73 74 74 75 76 76 77 78 79 79 80 81 81
24 24 23 22 21 21 20 20 21 21 21 22 22 22 23 23 24 24 24 24 24 24 24 24 24 24 24 24 24 24 24 25 26 27 28 29 29 29 30 30 30 31 32 32 34 35 35 36 37 40 42 45 47 48 49 50 51 52 54 56 58 60 61 63 63 64 66 67 69 71 72 73 74 75 75 76 77 78 80 81 82 84 86 87 87 88 89
23 23 22 22 21 21 21 21 21 21 22 22 22 23 23 23 23 23 24 24 24 24 24 24 24 24 25 25 26 26 26 27 28 28 29 30 31 31 32 32 33 33 33 33 34 35 36 37 38 41 44 46 48 49 51 52 55 56 58 60 62 63 65 66 67 69 70 70 72 73 74 75 76 78 80 81 83 85 86 88 90 91 92 94 95 95 96
22 22 22 22 22 22 22 22 22 22 22 22 22 22 22 22 22 23 23 23 23 24 24 24 25 25 26 27 28 29 29 30 30 31 32 33 33 33 34 35 36 35 35 36 37 37 38 39 41 44 46 47 48 50 51 54 57 59 61 62 64 65 67 68 69 71 73 74 76 77 79 81 82 83 85 86 88 89 90 92 93 95 96 98 99 101 102
22 23 23 23 22 22 22 22 21 21 21 21 21 21 21 21 21 22 22 23 23 24 24 25 26 27 27 28 29 30 31 32 33 34 35 35 36 36 37 38 39 39 39 40 40 41 42 44 46 48 49 49 50 52 54 56 59 61 62 64 65 66 67 68 69 71 73 75 77 79 81 83 84 85 87 88 90 91 93 95 97 99 101 103 105 107 109
23 23 23 23 22 22 21 21 20 20 20 20 20 20 20 21 21 21 22 23 23 24 25 26 27 28 29 30 30 32 33 34 35 36 36 37 39 39 40 41 42 43 43 44 45 46 47 49 50 50 51 52 54 56 58 59 61 62 63 64 64 65 66 68 70 72 74 75 77 79 81 83 85 87 90 93 95 97 99 101 103 105 107 109 111 113 116
23 23 23 22 22 22 21 20 19 19 19 19 20 20 21 21 22 23 23 24 24 25 26 27 28 29 31 32 33 34 35 36 37 38 38 39 40 41 42 43 44 45 46 47 49 50 51 51 52 53 54 55 57 59 60 61 63 63 64 65 66 67 69 71 72 75 77 79 80 82 84 86 89 92 95 98 101 104 107 109 111 113 115 117 119 121 123
24 23 22 22 22 21 20 20 19 20 20 20 21 22 22 23 24 24 25 26 27 27 28 29 30 31 32 34 35 36 37 38 39 40 41 41 42 43 44 45 46 48 49 50 52 53 53 53 54 56 57 59 61 62 63 65 66 67 68 69 70 72 74 75 77 79 81 83 86 88 90 92 94 96 99 103 106 110 113 116 118 121 122 123 124 124 123
24 23 23 22 22 21 21 21 21 21 21 22 23 23 24 25 25 26 27 29 30 30 31 32 33 34 35 36 37 37 38 39 40 41 42 43 44 45 47 48 49 51 52 53 54 54 54 55 57 59 61 62 64 65 67 68 69 70 71 72 74 75 78 80 82 84 86 88 90 92 94 97 99 102 105 109 112 115 118 121 122 122 120 118 116 114 111
24 24 23 23 22 22 22 22 22 23 23 24 24 25 26 26 27 28 29 30 31 33 34 35 35 36 37 37 38 38 39 40 41 43 44 45 47 48 49 51 52 53 54 54 55 56 57 58 60 62 64 65 66 68 69 71 72 74 75 76 78 81 83 85 87 89 90 92 94 96 99 102 105 108 111 114 117 119 120 119 116 112 108 106 103 101 98
25 25 24 24 24 24 24 24 24 25 25 26 27 28 28 29 30 30 32 32 34 35 36 37 38 38 39 39 39 40 42 43 44 46 47 48 49 51 51 53 54 54 55 56 57 58 59 61 63 65 66 67 69 71 72 74 76 78 80 81 83 85 87 89 90 92 94 96 99 101 104 108 111 113 115 116 116 113 110 105 102 99 97 94 92 89 87
26 26 26 26 25 25 25 26 26 27 27 28 29 30 31 31 32 33 34 35 37 38 38 39 39 40 40 41 42 43 44 46 47 48 50 51 52 52 53 54 55 56 57 58 60 61 62 64 66 68 69 71 73 74 76 78 80 82 84 86 87 88 90 91 93 96 98 101 104 107 109 112 113 113 111 107 102 98 95 92 91 90 89 85 83 81 81
28 28 28 28 28 28 28 28 28 29 30 30 31 32 33 34 35 36 37 38 39 39 40 40 41 41 42 43 45 46 47 48 49 51 52 52 53 54 55 56 56 58 59 61 63 64 65 67 69 70 72 74 76 78 79 81 83 85 87 88 90 92 93 95 97 100 103 106 108 109 109 107 104 100 95 92 89 87 86 87 87 87 83 79 76 77 78
30 30 30 30 30 30 30 31 31 31 32 33 33 34 35 36 37 38 39 40 40 40 41 41 42 43 44 45 46 47 49 50 51 52 53 53 54 55 56 57 59 60 62 64 65 67 68 69 71 73 75 77 79 81 83 84 86 88 90 92 94 96 98 100 102 105 106 107 105 101 96 91 87 84 83 83 83 84 85 86 86 84 79 75 73 75 76
32 32 32 32 32 32 33 33 34 34 34 35 36 37 38 38 39 40 40 40 40 41 41 42 43 45 46 47 48 49 50 51 52 53 54 55 56 58 59 60 61 62 64 66 67 68 70 72 74 76 78 80 82 84 86 88 90 92 94 96 98 100 102 104 105 104 100 95 89 83 79 77 77 78 80 81 83 85 86 86 84 82 78 73 71 72 73
33 33 34 34 34 35 35 36 36 37 38 38 39 39 40 40 40 40 40 41 41 42 43 44 45 46 48 49 50 51 51 52 54 55 56 57 58 59 60 61 62 64 65 67 69 71 73 75 78 80 81 83 86 88 90 92 94 96 98 100 102 103 102 100 96 90 83 77 74 73 73 75 77 79 81 83 84 86 86 85 84 82 78 72 69 70 71
35 35 35 36 36 37 38 38 39 39 40 40 41 41 40 40 40 40 40 41 43 44 45 46 48 49 50 51 52 52 53 54 55 56 57 58 59 60 61 62 63 65 67 69 71 73 76 78 81 84 86 87 89 91 93 96 98 100 101 102 100 97 91 85 79 74 71 69 70 71 74 75 77 79 80 82 83 84 85 85 84 81 76 70 68 68 70
37 38 38 39 40 40 41 41 42 42 42 42 41 41 40 40 40 41 42 43 44 46 48 49 50 51 52 53 53 54 55 55 56 56 57 57 59 60 61 63 65 68 70 72 73 75 78 81 84 87 89 91 93 96 98 100 101 99 97 93 88 82 76 72 70 69 69 69 70 71 73 74 76 78 79 80 81 82 83 85 83 79 73 67 64 65 68
Wind_Direction
147 146 146 147 148 150 151 153 153 153 154 158 161 164 169 175 178 177 179 178 176 179 182 191 263 289 294 297 296 298 300 302 305 308 310 313 315 315 316 315 315 315 316 318 318 319 319 318 317 316 315 315 314 314 314 315 316 317 317 318 319 320 321 322 324 324 323 325 326 327 329 330 331 333 335 337 337 337 337 335 334 333 337 340 335 336 343
145 145 146 147 149 150 151 151 151 152 155 159 161 165 171 175 175 176 180 181 183 193 203 225 268 286 290 292 293 295 298 301 304 307 310 313 314 314 314 313 314 315 316 318 320 320 321 320 319 318 317 317 316 315 315 315 316 316 317 318 319 320 321 321 323 323 322 323 324 326 329 330 331 332 334 336 336 337 336 335 333 331 335 340 335 334 340
144 145 146 147 148 149 149 149 149 151 156 160 165 169 173 175 177 181 187 190 200 218 232 253 271 280 283 286 288 292 297 300 304 306 308 311 312 312 313 313 314 315 317 319 321 321 322 322 321 319 318 318 317 316 316 316 316 316 316 317 318 319 320 320 322 323 323 323 324 326 328 330 331 330 332 334 335 335 336 335 333 330 334 339 335 332 337
145 145 146 147 148 148 147 147 149 153 159 164 169 172 174 178 184 192 203 213 224 239 251 265 274 278 280 283 287 291 295 298 301 304 305 307 309 310 310 312 313 314 315 317 319 320 321 321 322 321 319 319 318 317 317 316 316 315 315 316 317 318 318 319 320 322 322 322 323 324 326 328 329 329 331 333 333 334 335 334 332 329 331 337 335 332 335
145 145 146 146 146 145 145 148 152 156 163 166 170 175 179 187 198 210 225 238 250 260 268 274 277 281 284 285 288 291 294 296 299 301 302 304 305 306 307 309 311 311 312 314 315 316 317 317 319 319 318 318 317 317 317 316 316 315 315 315 316 316 317 317 318 320 320 320 321 323 324 327 329 328 329 331 331 332 334 334 331 327 329 335 335 332 334
145 144 146 146 146 146 147 152 156 159 165 168 173 184 190 202 218 229 243 257 267 274 279 282 284 285 287 289 291 293 294 296 298 300 301 302 303 304 305 307 308 309 309 310 311 311 312 313 314 315 315 315 315 315 315 314 314 314 313 314 315 315 316 316 317 319 320 319 320 322 323 327 329 327 327 329 330 330 333 334 331 327 328 333 334 334 335
143 144 147 147 148 150 153 157 160 164 172 178 186 198 207 223 237 245 257 267 273 278 282 285 287 288 289 291 293 293 295 296 298 299 300 301 302 303 304 305 306 307 307 308 308 309 310 310 311 311 312 312 312 312 312 312 312 312 312 313 313 314 315 315 315 318 319 318 319 321 322 325 328 326 325 327 328 329 332 335 332 327 328 332 334 335 337
143 146 148 149 152 155 159 163 167 174 187 196 206 215 225 241 250 258 266 272 279 282 283 286 289 290 291 292 293 294 295 296 297 299 299 300 302 302 303 304 305 305 305 306 307 307 308 308 309 310 310 310 310 310 310 310 311 311 311 312 313 313 313 314 314 317 319 318 318 319 321 324 326 325 324 325 327 328 332 335 332 327 328 333 334 334 337
144 147 149 151 155 160 165 170 176 190 207 215 225 237 247 256 263 268 272 278 283 285 287 288 289 291 292 293 293 294 295 296 298 298 299 300 301 301 302 303 304 304 304 305 306 306 307 307 308 309 309 309 309 309 310 310 310 311 311 312 312 312 313 314 314 316 318 317 317 318 320 324 326 324 323 325 326 328 331 335 333 328 328 332 334 335 336
146 148 150 154 160 166 174 183 195 212 225 234 241 251 259 266 273 275 277 282 285 286 289 290 290 292 293 294 294 295 296 297 297 298 298 299 300 300 301 302 303 303 304 305 306 306 306 307 308 309 309 309 309 309 310 311 310 311 311 312 312 311 312 313 313 315 318 317 317 318 320 324 325 322 323 325 326 327 329 334 333 329 329 332 334 335 335
148 152 155 160 167 178 192 205 217 229 240 248 254 261 267 271 276 279 281 285 287 288 290 291 292 294 294 295 295 296 297 297 297 298 298 299 299 300 301 301 302 303 304 305 305 306 307 307 308 309 309 309 310 310 311 311 311 312 312 312 312 311 312 313 313 315 317 317 317 318 320 324 324 322 323 326 326 325 327 333 334 330 329 332 333 333 334
149 154 158 166 180 199 217 227 236 244 252 258 263 269 272 275 278 281 283 286 289 290 291 291 293 294 294 295 295 296 296 297 297 298 298 299 300 300 301 301 302 303 304 304 305 306 307 307 308 309 309 310 310 311 311 311 311 312 312 311 312 312 313 313 313 314 317 317 317 317 321 326 324 321 323 325 324 324 325 332 336 331 329 331 331 332 333
148 155 163 178 199 224 238 245 251 256 261 267 271 276 278 280 283 285 286 288 290 291 291 293 293 294 294 295 295 295 296 296 297 298 298 299 299 299 300 300 301 302 303 303 304 304 305 306 306 307 308 309 309 310 311 311 311 312 311 311 312 312 313 313 313 314 316 316 317 318 322 326 322 319 321 324 324 324 324 331 337 332 328 330 330 331 332
156 167 180 204 228 245 255 260 265 269 272 276 278 283 285 287 289 291 291 292 293 293 293 294 295 295 295 295 295 296 296 297 297 298 298 298 298 298 299 299 300 301 301 301 302 302 303 304 304 305 306 307 307 308 309 309 311 311 310 311 312 312 312 312 313 314 315 315 316 318 322 325 320 319 323 325 325 325 324 328 334 332 328 329 330 330 331
198 214 231 244 255 264 270 275 279 282 284 287 290 293 295 296 296 297 297 296 297 299 298 298 299 299 298 298 298 298 299 299 298 298 298 298 298 298 298 298 299 299 299 299 300 300 301 302 302 303 304 305 306 306 307 308 309 310 310 311 312 312 312 312 313 315 315 315 317 320 323 324 321 321 325 326 326 326 324 325 330 330 327 328 329 329 329
239 247 257 266 274 282 286 291 294 296 297 299 301 302 303 303 302 302 302 301 302 303 302 302 302 302 301 302 302 301 300 300 299 299 299 298 298 298 298 298 298 298 298 298 298 299 300 300 301 302 303 304 305 305 306 307 308 310 311 312 312 312 312 313 313 314 314 315 318 322 324 323 321 322 326 326 325 326 324 324 327 328 327 327 328 328 328
262 274 284 292 298 302 305 307 308 309 309 309 308 309 310 308 305 305 304 304 304 304 304 304 304 304 303 303 302 301 300 300 299 298 298 297 297 297 297 297 297 297 298 298 298 299 299 299 300 301 302 304 304 305 307 307 308 311 312 311 312 313 313 313 313 314 314 316 319 322 323 322 321 323 326 325 325 325 324 324 326 327 327 327 327 327 326
312 326 334 339 339 337 335 332 327 325 322 319 317 316 313 309 306 305 305 304 305 305 305 305 305 304 304 303 302 301 300 299 299 298 297 296 296 296 296 297 297 298 298 299 299 299 299 300 301 301 303 304 304 306 307 308 309 311 312 312 313 313 313 313 313 314 315 318 320 323 323 322 322 324 325 324 324 324 323 323 324 325 325 325 325 325 324
41 35 24 14 2 350 342 336 329 326 322 318 316 313 309 307 305 305 305 305 306 306 306 306 305 305 304 303 302 301 301 300 299 298 297 297 297 296 297 297 298 299 299 300 300 300 301 302 303 303 304 305 305 307 308 309 312 313 313 313 314 313 313 313 314 316 318 321 323 324 324 324 324 325 324 323 323 322 321 320 321 322 322 322 322 322 322
35 16 355 343 334 327 323 319 316 314 312 310 308 306 304 303 303 304 305 306 307 306 306 306 305 304 304 303 302 302 301 300 300 299 299 299 299 299 300 300 301 302 302 303 303 304 304 305 305 306 307 307 307 309 310 311 315 316 314 314 314 314 313 314 317 319 321 324 327 326 324 325 325 324 322 322 322 319 317 317 318 320 320 320 320 321 321
330 324 320 318 316 314 313 311 310 308 306 304 302 300 300 300 302 304 306 306 306 306 306 305 305 304 304 304 303 303 303 303 303 303 304 304 304 304 305 305 306 306 306 307 307 308 308 308 308 309 310 309 311 312 313 314 317 317 316 315 315 314 314 316 320 322 323 326 328 324 321 323 323 322 322 321 318 314 313 315 317 319 319 319 319 320 321
310 310 311 311 310 310 310 310 308 307 305 302 300 300 300 302 304 305 305 305 305 305 305 305 305 305 306 306 307 307 307 308 308 309 310 310 310 310 311 311 311 311 311 311 312 312 312 312 312 313 314 313 315 317 317 317 318 318 318 316 314 314 316 320 322 322 323 327 326 319 317 320 321 322 321 316 312 311 312 314 316 317 318 318 318 319 319
309 309 310 310 311 311 311 311 310 307 304 303 303 304 304 305 305 305 305 305 305 305 306 307 308 310 311 312 312 313 313 314 315 315 316 316 315 316 316 316 316 317 316 316 317 316 317 317 317 317 318 318 318 320 320 319 319 319 318 315 315 317 319 320 321 321 323 325 321 315 315 319 320 319 315 310 310 311 312 313 314 316 317 317 317 317 318
315 316 318 319 319 319 318 317 313 309 307 307 307 306 306 306 306 307 307 307 307 308 310 313 315 317 319 319 319 319 319 319 319 319 319 319 319 319 319 319 320 320 320 320 320 319 320 320 320 321 322 322 322 323 323 322 321 320 317 316 318 321 320 319 321 321 320 320 317 314 314 317 317 313 310 308 310 311 311 312 314 316 317 317 316 317 317
325 326 327 328 327 327 324 319 315 312 310 309 307 308 309 310 311 311 311 311 313 315 318 320 321 323 323 323 322 322 322 322 321 321 321 322 322 322 322 322 323 323 323 323 323 323 324 324 324 325 326 325 327 328 326 324 322 319 317 318 321 322 320 318 318 318 317 317 316 313 312 313 313 310 308 309 310 310 312 314 315 316 316 316 316 316 316
331 330 331 331 331 330 326 321 318 315 311 310 312 314 316 317 317 317 318 320 322 324 325 325 326 326 326 326 326 326 325 325 324 324 325 326 326 327 327 328 328 329 329 329 328 328 329 329 329 329 329 329 331 330 327 324 321 316 316 320 322 320 319 317 316 316 317 316 314 312 311 312 311 309 308 310 312 313 314 315 315 315 314 314 315 315 316
330 328 328 327 328 327 325 323 320 318 316 317 322 324 324 323 324 326 327 330 331 332 332 332 331 332 332 331 331 331 330 330 330 331 332 333 334 334 334 334 335 335 334 334 333 332 333 333 332 331 330 330 330 327 324 321 316 312 316 320 320 317 317 316 315 316 316 315 313 312 313 314 314 313 313 314 315 315 315 315 314 314 314 315 315 316 316
325 321 319 321 324 325 323 322 322 323 325 327 331 332 332 333 335 336 337 338 338 338 337 337 336 336 337 337 337 337 336 336 337 339 340 340 340 340 340 340 340 339 339 338 336 335 334 333 332 329 326 325 324 321 318 316 313 313 317 319 317 316 317 316 315 315 315 314 313 312 313 314 315 315 315 315 315 314 315 315 315 315 315 315 316 316 315
320 317 317 321 325 327 325 323 325 330 332 333 334 338 342 344 345 345 346 345 344 343 342 341 340 340 340 341 341 341 341 342 343 344 344 344 343 342 342 342 340 340 339 337 334 331 330 328 327 324 321 319 318 317 315 314 315 316 317 317 317 317 317 315 313 313 313 312 312 312 312 313 314 314 315 314 314 314 314 314 314 314 315 315 315 316 317
320 320 321 324 327 329 329 328 329 333 334 334 336 341 348 350 351 351 351 350 348 347 345 344 344 344 344 345 346 345 345 344 345 344 343 342 341 339 338 337 336 336 335 332 329 327 325 324 323 322 319 318 317 316 315 317 318 318 318 318 318 318 316 314 312 312 312 312 312 312 312 312 313 314 314 313 312 312 312 313 313 313 314 314 315 316 316
325 325 327 328 329 330 331 331 331 332 333 333 337 342 347 350 351 352 351 350 349 348 347 347 347 348 348 349 348 346 345 344 343 342 341 340 338 336 334 333 332 332 331 329 327 324 323 323 323 322 320 318 317 316 317 320 321 320 318 318 317 315 313 312 311 310 310 310 310 311 311 311 312 312 311 310 311 311 312 312 313 313 313 314 314 314 314
328 328 328 328 329 329 330 330 330 330 330 332 336 340 343 347 348 348 348 348 347 347 348 347 347 347 348 347 346 344 342 340 339 338 337 336 334 332 331 330 329 329 329 328 326 325 323 323 323 322 320 318 317 317 319 320 320 319 318 316 314 312 311 310 309 308 308 308 308 310 311 311 311 311 311 311 312 312 312 313 312 312 313 313 313 313 313
326 325 324 325 327 328 328 327 328 328 328 331 335 338 341 343 343 344 345 345 346 347 347 346 346 346 345 344 343 342 340 338 337 335 333 331 331 330 330 328 328 329 330 329 327 326 325 324 324 322 319 318 318 318 318 319 319 318 317 315 313 311 310 309 308 309 309 309 310 312 313 313 312 312 313 314 314 313 313 313 312 312 312 312 312 312 312
323 322 323 324 326 326 326 326 326 326 328 330 334 336 337 338 340 341 343 344 344 345 345 345 344 343 342 341 341 340 338 336 334 332 330 330 332 331 331 331 330 331 331 330 328 326 326 325 324 320 317 317 318 317 316 317 318 317 315 313 311 310 310 311 311 312 312 312 313 313 314 314 314 314 314 314 313 313 313 313 312 312 312 311 311 311 310
323 323 323 324 325 326 327 327 327 327 329 331 332 333 335 336 338 340 342 343 343 343 343 343 342 341 341 340 339 338 337 335 335 334 332 332 334 334 333 333 332 331 331 329 327 325 324 323 321 318 316 316 316 316 316 318 318 316 314 313 312 313 314 314 314 314 314 314 313 313 313 313 313 313 313 313 313 312 312 312 312 311 312 312 312 312 311
326 326 326 327 328 329 329 329 329 330 331 331 332 333 334 336 338 340 341 341 342 342 342 342 341 341 340 339 338 338 337 336 336 335 333 333 334 334 332 332 330 329 328 326 323 321 321 320 318 316 315 315 316 317 318 318 317 315 315 315 315 316 316 315 315 315 314 314 314 313 313 313 313 313 313 312 312 312 312 313 313 314 314 314 314 313 312
331 331 332 332 333 333 332 331 331 331 331 332 332 333 335 337 338 340 341 341 342 342 342 342 342 341 340 339 338 337 337 336 335 334 333 333 333 332 330 329 328 326 325 323 320 319 319 318 316 315 314 315 317 318 318 316 315 316 316 316 317 317 317 316 316 316 315 314 314 314 313 313 313 313 313 314 314 315 316 316 316 315 315 314 313 312 312
335 336 336 335 335 335 334 333 333 333 333 334 334 335 337 340 341 341 343 343 343 343 342 342 341 340 339 338 336 335 335 334 334 333 332 331 329 329 327 326 325 324 323 322 321 320 319 318 316 315 316 317 318 318 316 316 316 317 317 317 318 318 318 317 317 316 315 315 314 314 314 314 314 314 315 316 316 316 316 315 315 314 313 312 311 311 310
339 338 338 337 337 338 337 337 338 339 338 339 340 340 342 343 343 343 344 343 342 342 341 340 339 337 335 335 334 332 332 332 331 330 329 327 326 326 325 324 324 324 323 322 322 322 321 320 319 319 320 320 320 318 318 318 318 318 318 318 318 318 318 317 317 316 316 316 317 317 317 317 316 316 316 316 315 315 315 314 313 312 311 311 310 310 309
340 340 339 339 340 341 341 342 344 344 343 344 344 344 344 343 343 342 342 340 339 339 337 336 335 334 332 332 331 330 329 328 328 327 326 326 325 325 324 324 324 324 324 323 323 323 323 323 323 323 323 321 320 320 320 320 320 319 319 319 319 318 318 317 317 317 317 317 318 318 317 317 316 316 316 315 315 315 314 313 312 312 311 311 311 310 310
341 341 341 341 341 342 342 343 344 344 343 342 342 341 341 341 339 338 338 337 336 335 333 332 332 331 330 329 329 328 327 327 326 326 325 324 324 324 324 324 324 324 324 325 325 325 325 325 324 323 322 321 321 321 321 320 320 320 319 319 318 318 318 318 318 318 318 318 318 318 317 317 316 316 315 315 314 314 313 313 313 312 312 311 311 311 310
341 340 339 340 340 340 340 340 340 339 339 339 338 337 337 337 335 334 333 333 332 332 331 330 330 329 328 328 327 327 327 326 325 325 325 324 324 325 325 325 326 326 326 326 326 326 326 325 324 323 322 322 321 321 321 321 320 320 320 320 320 320 319 319 319 319 319 318 318 318 317 317 316 315 315 314 314 314 314 314 313 313 312 312 312 312 312
341 340 338 337 337 337 337 337 337 336 336 335 334 334 333 332 332 331 331 330 330 330 329 329 328 328 327 327 326 326 325 325 325 324 324 324 325 326 326 327 327 327 327 327 326 326 325 324 323 322 322 322 322 321 321 321 321 321 321 321 321 320 320 320 320 320 319 319 318 317 317 316 316 316 316 316 315 315 314 314 313 314 314 315 315 315 315
341 340 337 335 333 332 333 333 333 333 332 331 330 329 329 329 328 329 328 328 327 327 327 327 327 326 326 326 326 325 325 325 325 324 325 325 326 327 328 328 328 327 327 326 325 325 324 323 322 321 322 322 322 322 322 322 322 322 321 321 321 321 320 320 320 319 319 318 317 316 316 317 317 317 317 316 315 314 314 315 316 316 317 317 318 318 319
340 340 338 336 333 331 330 330 329 328 328 327 326 326 327 327 327 327 327 326 327 327 327 326 326 326 326 326 326 326 325 325 325 325 326 327 328 328 328 328 327 326 326 325 324 323 322 322 322 322 322 323 323 323 323 323 322 322 321 321 321 320 320 320 319 318 317 317 317 318 318 318 318 317 316 315 315 316 317 318 319 320 321 323 324 326 327
339 339 338 336 334 332 330 329 328 327 327 326 326 326 327 327 327 327 326 326 327 327 327 326 326 326 326 326 326 326 326 326 326 327 327 328 328 328 328 327 326 325 324 324 323 323 323 323 323 324 324 324 324 324 323 323 322 322 321 321 320 320 319 318 318 317 317 318 319 319 318 317 316 316 316 317 319 320 321 323 325 327 329 331 333 335 337
338 337 337 336 334 333 332 331 330 329 327 327 327 327 327 327 327 326 326 326 326 326 326 326 326 325 325 325 325 326 326 327 327 328 328 328 327 327 326 325 325 324 324 324 324 324 324 324 324 325 325 325 324 324 323 322 321 321 320 319 319 318 318 318 318 319 319 320 319 318 317 317 318 319 320 322 323 325 326 329 331 333 334 334 336 338 339
337 337 336 336 334 333 332 331 330 329 328 327 327 327 327 327 326 326 326 326 326 326 325 325 325 325 325 325 326 326 327 327 327 327 327 326 326 325 325 325 325 325 325 325 325 325 325 325 325 325 325 325 324 323 322 321 320 320 319 318 318 318 318 319 320 320 320 319 318 319 319 321 323 324 325 327 328 329 331 333 335 335 333 332 333 335 336
336 336 335 335 333 332 332 331 330 329 328 328 327 327 327 326 326 326 326 325 325 324 324 324 325 325 325 325 326 326 326 326 327 326 326 326 326 326 326 326 326 326 325 325 325 325 326 326 326 325 325 324 323 322 321 320 319 319 318 318 319 319 320 320 320 319 319 320 322 324 326 327 328 329 330 331 332 333 334 335 335 333 331 329 329 331 334
334 334 333 333 332 331 330 329 329 328 328 327 327 326 326 326 326 325 324 324 324 323 324 324 325 325 325 325 325 326 326 327 327 326 326 327 327 327 327 327 326 325 325 325 325 326 326 326 325 325 324 323 322 321 320 319 318 318 319 319 320 320 320 319 320 321 324 326 328 329 330 330 330 331 332 333 333 333 333 333 333 332 330 327 325 327 330
332 331 331 330 330 329 328 328 328 327 327 326 326 325 325 325 324 324 323 323 323 323 323 324 324 324 325 325 326 327 327 327 327 327 327 328 327 327 326 326 325 324 324 325 326 326 326 326 325 324 323 322 321 320 319 319 319 319 320 320 320 319 320 322 325 327 329 330 331 331 331 331 331 330 331 331 331 330 330 330 331 331 330 327 325 325 329
329 330 330 330 329 328 328 328 327 327 326 325 325 325 325 324 324 323 323 323 322 323 323 324 324 325 326 326 326 327 327 327 327 328 328 327 326 325 325 325 325 325 325 326 326 326 326 325 323 322 321 321 320 320 320 320 320 320 320 320 321 323 326 329 330 331 332 332 333 333 332 331 330 329 329 329 329 328 328 329 331 332 331 329 327 326 329
Height
5802 5804 5806 5808 5809 5811 5812 5813 5814 5815 5816 5817 5818 5819 5819 5820 5820 5821 5821 5822 5822 5822 5823 5823 5823 5823 5823 5823 5823 5823 5823 5823 5823 5822 5821 5821 5820 5819 5818 5817 5815 5814 5813 5811 5810 5808 5806 5804 5802 5800 5798 5796 5794 5792 5790 5788 5785 5783 5780 5778 5775 5773 5770 5767 5765 5761 5757 5754 5751 5747 5743 5739 5734 5730 5726 5722 5718 5713 5708 5703 5698 5694 5691 5687 5679 5674 5674
5804 5806 5808 5809 5811 5812 5813 5814 5815 5816 5817 5818 5818 5819 5819 5820 5820 5821 5821 5822 5822 5822 5822 5822 5822 5822 5822 5823 5822 5822 5822 5822 5821 5821 5820 5819 5818 5817 5816 5815 5814 5812 5811 5809 5807 5805 5804 5802 5800 5798 5796 5794 5792 5790 5788 5785 5783 5780 5777 5775 5772 5769 5766 5763 5761 5758 5755 5751 5747 5743 5739 5735 5731 5726 5722 5719 5714 5710 5706 5701 5695 5690 5688 5685 5678 5671 5670
5806 5808 5809 5811 5812 5813 5814 5815 5816 5817 5817 5818 5819 5819 5819 5820 5820 5821 5821 5821 5821 5821 5822 5822 5822 5822 5822 5822 5821 5821 5821 5820 5820 5819 5818 5817 5816 5815 5814 5813 5812 5810 5809 5807 5805 5803 5801 5799 5798 5796 5793 5792 5789 5787 5785 5782 5780 5777 5774 5772 5769 5766 5763 5759 5757 5754 5749 5746 5742 5738 5735 5731 5727 5723 5719 5716 5712 5707 5703 5698 5693 5687 5684 5683 5677 5669 5668
5808 5809 5811 5812 5813 5814 5814 5815 5816 5817 5818 5818 5819 5819 5820 5820 5820 5821 5821 5821 5821 5821 5821 5821 5821 5821 5821 5821 5820 5820 5819 5819 5818 5818 5817 5816 5815 5814 5813 5811 5810 5808 5807 5805 5803 5801 5799 5797 5795 5793 5791 5789 5787 5784 5782 5780 5777 5774 5771 5769 5766 5763 5760 5756 5753 5751 5746 5742 5739 5735 5732 5729 5725 5720 5716 5713 5709 5705 5701 5696 5690 5684 5681 5680 5675 5667 5663
5809 5811 5812 5812 5813 5814 5815 5816 5817 5817 5818 5818 5819 5819 5819 5820 5820 5820 5820 5821 5821 5820 5820 5820 5820 5820 5820 5819 5819 5819 5818 5817 5817 5816 5815 5814 5813 5812 5811 5809 5808 5806 5805 5803 5801 5799 5797 5795 5793 5791 5789 5786 5784 5782 5779 5777 5774 5771 5768 5766 5763 5760 5757 5753 5750 5747 5744 5740 5736 5732 5729 5726 5722 5717 5713 5710 5706 5702 5699 5694 5688 5682 5677 5676 5672 5665 5659
5810 5811 5812 5813 5814 5814 5815 5816 5817 5817 5818 5818 5819 5819 5819 5820 5820 5820 5820 5820 5820 5820 5820 5820 5819 5819 5819 5818 5818 5817 5817 5816 5815 5814 5813 5812 5811 5810 5809 5807 5806 5804 5802 5801 5799 5797 5795 5793 5790 5788 5786 5784 5781 5779 5776 5773 5771 5768 5765 5762 5759 5756 5754 5750 5747 5744 5741 5736 5733 5730 5726 5723 5719 5714 5710 5707 5703 5699 5696 5692 5686 5679 5674 5671 5668 5663 5657
5811 5812 5813 5814 5814 5815 5816 5816 5817 5817 5818 5818 5819 5819 5819 5819 5819 5819 5819 5819 5819 5819 5819 5819 5818 5818 5817 5817 5817 5816 5815 5814 5813 5813 5812 5810 5809 5808 5806 5805 5803 5802 5800 5798 5796 5794 5792 5790 5788 5785 5783 5780 5778 5776 5773 5770 5767 5765 5761 5759 5756 5753 5750 5747 5743 5742 5739 5733 5729 5726 5723 5720 5717 5712 5707 5703 5700 5696 5693 5689 5683 5676 5671 5668 5663 5660 5656
5812 5813 5813 5814 5815 5815 5816 5817 5817 5817 5818 5818 5818 5819 5819 5819 5819 5819 5819 5819 5818 5818 5818 5817 5817 5817 5816 5816 5815 5814 5813 5813 5812 5811 5809 5808 5807 5805 5804 5802 5800 5799 5797 5795 5793 5791 5789 5787 5785 5782 5780 5777 5775 5772 5770 5767 5764 5761 5758 5755 5752 5749 5746 5743 5740 5738 5736 5731 5726 5723 5720 5717 5714 5709 5703 5699 5696 5693 5689 5686 5680 5673 5668 5665 5660 5655 5652
5813 5813 5814 5815 5815 5816 5816 5817 5817 5817 5818 5818 5818 5818 5818 5818 5818 5818 5818 5818 5817 5817 5817 5816 5816 5815 5815 5814 5813 5812 5811 5810 5809 5808 5807 5805 5804 5803 5801 5799 5797 5796 5794 5792 5790 5788 5786 5783 5781 5779 5776 5774 5771 5768 5766 5763 5760 5757 5754 5751 5748 5745 5742 5739 5735 5733 5732 5728 5723 5720 5717 5714 5710 5705 5700 5696 5692 5688 5685 5683 5677 5670 5664 5662 5657 5651 5647
5813 5814 5814 5815 5815 5816 5816 5816 5817 5817 5817 5818 5818 5818 5818 5818 5817 5817 5817 5817 5816 5816 5815 5815 5814 5814 5813 5812 5811 5810 5809 5808 5807 5806 5804 5803 5801 5799 5798 5796 5794 5792 5790 5789 5787 5784 5782 5780 5778 5775 5773 5770 5768 5765 5762 5759 5756 5754 5750 5747 5744 5741 5737 5735 5731 5729 5727 5724 5719 5716 5713 5710 5706 5701 5696 5692 5688 5683 5681 5680 5675 5668 5662 5658 5654 5649 5644
5814 5814 5815 5815 5815 5816 5816 5816 5817 5817 5817 5817 5817 5817 5817 5817 5817 5816 5816 5815 5815 5814 5814 5813 5813 5812 5811 5810 5809 5808 5807 5805 5804 5803 5801 5800 5798 5796 5795 5793 5791 5789 5787 5785 5783 5781 5779 5776 5774 5772 5769 5767 5764 5761 5759 5756 5753 5750 5747 5743 5740 5737 5733 5730 5727 5724 5723 5720 5715 5712 5709 5706 5702 5697 5692 5688 5684 5680 5677 5676 5673 5665 5660 5656 5651 5646 5641
5814 5814 5815 5815 5815 5816 5816 5816 5816 5816 5816 5816 5816 5816 5816 5816 5815 5815 5815 5814 5813 5813 5812 5811 5811 5810 5809 5808 5807 5805 5804 5803 5801 5800 5798 5797 5795 5793 5791 5789 5787 5786 5784 5782 5779 5777 5775 5773 5770 5768 5765 5763 5760 5757 5755 5752 5749 5746 5743 5739 5736 5733 5729 5726 5722 5719 5717 5715 5711 5708 5706 5703 5697 5692 5688 5685 5681 5677 5673 5673 5671 5663 5656 5653 5648 5643 5637
5814 5814 5815 5815 5815 5815 5815 5816 5816 5815 5815 5815 5815 5815 5815 5814 5814 5814 5813 5812 5812 5811 5810 5809 5808 5807 5806 5805 5804 5803 5801 5800 5798 5797 5795 5793 5791 5789 5788 5786 5784 5782 5780 5778 5775 5773 5771 5769 5767 5764 5762 5759 5757 5754 5751 5748 5745 5742 5739 5735 5732 5729 5726 5722 5718 5715 5712 5710 5706 5702 5702 5700 5694 5688 5685 5682 5678 5673 5669 5669 5668 5661 5653 5648 5643 5638 5633
5814 5814 5814 5815 5815 5815 5815 5815 5815 5815 5814 5814 5814 5814 5813 5813 5812 5812 5811 5810 5810 5809 5808 5807 5806 5805 5803 5802 5801 5799 5798 5796 5795 5793 5791 5790 5788 5786 5784 5782 5780 5778 5776 5774 5771 5769 5767 5765 5763 5760 5758 5755 5753 5750 5748 5745 5742 5739 5735 5732 5729 5725 5722 5718 5714 5711 5707 5705 5702 5699 5697 5695 5690 5684 5681 5677 5673 5669 5663 5662 5663 5657 5648 5643 5638 5633 5628
5814 5814 5814 5814 5814 5814 5814 5814 5814 5814 5813 5813 5813 5812 5812 5811 5811 5810 5809 5809 5808 5807 5806 5804 5803 5802 5801 5799 5798 5796 5795 5793 5791 5790 5788 5786 5784 5782 5780 5778 5776 5774 5772 5770 5767 5765 5763 5760 5758 5756 5754 5751 5749 5747 5744 5741 5739 5736 5732 5729 5726 5722 5718 5714 5710 5707 5703 5699 5697 5694 5692 5690 5684 5679 5676 5672 5668 5664 5658 5654 5655 5651 5644 5638 5632 5627 5622
5814 5814 5814 5814 5814 5814 5814 5814 5813 5813 5813 5812 5812 5811 5811 5810 5809 5809 5808 5807 5806 5805 5803 5802 5801 5799 5798 5796 5795 5793 5791 5790 5788 5786 5784 5782 5780 5778 5776 5774 5772 5769 5767 5765 5763 5761 5759 5756 5754 5752 5749 5747 5744 5742 5740 5737 5735 5732 5729 5725 5721 5718 5715 5711 5706 5703 5699 5695 5692 5690 5687 5684 5679 5674 5672 5668 5663 5659 5653 5648 5647 5644 5638 5632 5626 5621 5615
5814 5814 5814 5814 5814 5813 5813 5813 5813 5812 5812 5811 5811 5810 5810 5809 5808 5807 5806 5805 5804 5802 5801 5800 5798 5796 5795 5793 5791 5789 5788 5786 5784 5782 5780 5777 5775 5774 5771 5769 5767 5765 5763 5761 5758 5756 5754 5752 5750 5748 5745 5743 5740 5738 5736 5733 5730 5728 5725 5721 5718 5714 5710 5707 5703 5700 5696 5692 5690 5687 5684 5680 5675 5671 5668 5663 5658 5654 5647 5641 5639 5635 5630 5624 5619 5615 5610
5814 5814 5814 5813 5813 5813 5813 5813 5812 5812 5811 5811 5810 5809 5808 5807 5806 5805 5804 5803 5802 5800 5798 5797 5795 5793 5791 5790 5787 5786 5784 5782 5780 5778 5776 5773 5771 5769 5767 5765 5763 5761 5759 5757 5754 5752 5750 5747 5745 5744 5741 5739 5736 5734 5732 5729 5726 5723 5720 5716 5713 5710 5706 5703 5699 5696 5693 5689 5686 5684 5681 5677 5672 5668 5664 5658 5653 5649 5643 5637 5633 5629 5625 5619 5614 5610 5605
5814 5814 5814 5813 5813 5813 5813 5812 5812 5811 5810 5809 5809 5808 5807 5806 5804 5803 5802 5800 5799 5797 5795 5793 5791 5789 5787 5785 5783 5781 5779 5777 5775 5773 5771 5769 5767 5765 5763 5761 5759 5757 5755 5752 5750 5748 5746 5744 5741 5739 5738 5735 5733 5730 5728 5725 5722 5719 5716 5712 5709 5705 5701 5698 5695 5692 5689 5686 5683 5679 5677 5674 5669 5664 5659 5654 5649 5644 5638 5633 5630 5626 5621 5616 5611 5606 5601
5814 5814 5814 5813 5813 5813 5812 5811 5811 5810 5809 5808 5807 5806 5805 5803 5802 5800 5799 5797 5795 5794 5792 5790 5788 5785 5783 5781 5779 5777 5775 5773 5771 5769 5767 5765 5763 5761 5759 5757 5755 5753 5751 5749 5746 5744 5742 5740 5738 5736 5734 5731 5729 5727 5725 5723 5720 5716 5712 5709 5705 5701 5697 5695 5692 5689 5685 5683 5679 5674 5670 5668 5664 5659 5654 5650 5645 5639 5633 5628 5626 5623 5618 5612 5607 5603 5597
5814 5814 5813 5813 5812 5812 5811 5810 5809 5808 5807 5806 5805 5803 5802 5801 5799 5797 5796 5794 5792 5790 5788 5786 5783 5781 5779 5777 5774 5772 5771 5769 5767 5765 5763 5761 5759 5757 5756 5753 5751 5749 5747 5745 5743 5741 5739 5737 5734 5732 5730 5728 5725 5723 5721 5719 5717 5713 5709 5705 5702 5698 5695 5692 5689 5686 5682 5679 5676 5672 5666 5663 5659 5655 5651 5647 5641 5635 5629 5623 5620 5618 5614 5607 5601 5597 5593
5814 5813 5813 5812 5811 5811 5810 5809 5808 5806 5805 5804 5802 5801 5799 5798 5796 5794 5792 5790 5788 5786 5784 5781 5779 5777 5775 5773 5771 5769 5767 5765 5764 5762 5760 5758 5756 5754 5752 5750 5748 5746 5744 5742 5740 5738 5735 5733 5731 5729 5727 5724 5723 5720 5717 5715 5712 5709 5706 5702 5698 5695 5692 5689 5686 5683 5679 5676 5673 5668 5664 5660 5655 5651 5648 5643 5637 5631 5626 5620 5615 5612 5609 5603 5596 5591 5588
5813 5812 5811 5811 5810 5809 5808 5807 5805 5804 5803 5801 5800 5798 5796 5795 5793 5791 5788 5786 5784 5782 5780 5778 5776 5774 5772 5770 5768 5766 5764 5762 5761 5759 5757 5755 5753 5751 5749 5747 5745 5743 5741 5739 5737 5735 5733 5730 5728 5726 5724 5721 5720 5717 5714 5711 5708 5705 5702 5698 5694 5691 5688 5685 5682 5680 5676 5674 5669 5663 5659 5657 5654 5649 5643 5637 5632 5627 5622 5617 5612 5608 5604 5598 5592 5586 5582
5811 5811 5810 5809 5808 5807 5806 5805 5803 5802 5800 5799 5797 5795 5793 5791 5789 5787 5785 5782 5780 5778 5777 5775 5773 5771 5769 5767 5765 5763 5762 5760 5758 5756 5755 5753 5751 5749 5747 5745 5743 5741 5738 5736 5734 5732 5730 5728 5725 5723 5721 5718 5716 5714 5711 5707 5704 5701 5697 5693 5690 5688 5684 5680 5678 5675 5672 5670 5666 5660 5655 5654 5651 5645 5639 5633 5629 5624 5618 5613 5608 5603 5598 5593 5586 5580 5576
5810 5809 5808 5807 5806 5805 5804 5802 5801 5799 5798 5796 5794 5792 5790 5788 5786 5783 5781 5779 5778 5776 5774 5772 5771 5769 5767 5765 5763 5761 5760 5758 5756 5754 5752 5751 5748 5747 5744 5742 5740 5738 5736 5734 5732 5729 5727 5725 5722 5720 5718 5716 5713 5710 5707 5703 5699 5696 5692 5689 5686 5683 5680 5675 5673 5671 5667 5663 5660 5655 5651 5650 5647 5641 5634 5630 5625 5620 5615 5609 5603 5597 5592 5587 5581 5575 5570
5809 5808 5807 5806 5805 5804 5802 5801 5799 5797 5795 5793 5792 5790 5787 5785 5783 5781 5779 5777 5775 5774 5772 5770 5768 5767 5765 5763 5761 5760 5758 5756 5754 5752 5750 5749 5746 5744 5742 5740 5738 5736 5734 5732 5729 5727 5725 5722 5719 5717 5715 5713 5710 5707 5704 5700 5695 5690 5687 5685 5682 5678 5675 5670 5667 5665 5662 5658 5654 5648 5645 5645 5643 5637 5630 5625 5619 5613 5608 5603 5598 5592 5586 5581 5577 5572 5564
5808 5807 5806 5804 5803 5802 5800 5799 5797 5795 5793 5791 5789 5787 5785 5782 5780 5779 5777 5775 5773 5772 5770 5768 5766 5765 5763 5761 5760 5758 5756 5754 5752 5750 5749 5747 5745 5742 5740 5738 5736 5734 5732 5729 5727 5724 5722 5720 5717 5714 5712 5709 5707 5704 5701 5697 5692 5686 5684 5683 5679 5674 5671 5666 5661 5659 5656 5652 5647 5642 5637 5635 5633 5628 5622 5618 5612 5605 5601 5596 5591 5586 5580 5574 5569 5565 5560
5807 5805 5804 5803 5802 5800 5799 5797 5795 5793 5791 5789 5787 5785 5783 5781 5779 5777 5775 5773 5772 5770 5768 5767 5765 5763 5761 5760 5758 5756 5754 5752 5751 5749 5747 5745 5742 5740 5738 5736 5734 5732 5730 5727 5725 5722 5720 5717 5715 5712 5709 5706 5704 5701 5698 5694 5689 5684 5681 5680 5676 5671 5668 5663 5658 5654 5650 5646 5642 5637 5631 5627 5624 5620 5615 5611 5605 5599 5594 5589 5583 5579 5573 5567 5560 5555 5551
5806 5804 5803 5801 5800 5798 5797 5795 5793 5791 5790 5788 5786 5784 5781 5779 5777 5775 5773 5772 5770 5768 5767 5765 5763 5762 5760 5758 5756 5755 5753 5751 5749 5747 5745 5743 5741 5738 5736 5734 5732 5730 5728 5725 5722 5720 5717 5715 5712 5709 5706 5702 5700 5697 5695 5692 5688 5683 5679 5675 5672 5668 5664 5659 5654 5650 5646 5642 5637 5633 5628 5623 5619 5614 5609 5604 5598 5593 5588 5583 5577 5572 5567 5560 5554 5547 5540
5804 5803 5801 5799 5798 5796 5795 5793 5791 5790 5788 5786 5784 5782 5780 5778 5776 5774 5772 5770 5769 5767 5765 5764 5762 5760 5758 5757 5755 5753 5751 5749 5747 5745 5743 5741 5739 5736 5734 5732 5730 5728 5726 5723 5720 5718 5715 5712 5709 5706 5703 5699 5696 5693 5690 5689 5686 5682 5676 5672 5668 5665 5660 5655 5650 5645 5641 5637 5632 5628 5622 5617 5613 5609 5605 5600 5593 5587 5583 5577 5571 5565 5559 5553 5547 5541 5535
5802 5801 5799 5797 5796 5794 5793 5791 5789 5788 5786 5785 5783 5781 5778 5777 5775 5773 5771 5769 5768 5766 5764 5762 5761 5759 5757 5755 5753 5751 5749 5747 5745 5743 5741 5739 5737 5735 5732 5730 5728 5726 5724 5721 5718 5715 5712 5709 5707 5704 5700 5696 5693 5689 5686 5684 5682 5679 5674 5670 5665 5661 5657 5652 5646 5640 5635 5631 5627 5624 5620 5614 5608 5604 5602 5597 5590 5582 5575 5570 5564 5557 5552 5547 5541 5534 5529
5801 5799 5797 5796 5794 5792 5791 5789 5788 5786 5785 5783 5781 5779 5777 5775 5773 5771 5770 5768 5766 5764 5762 5761 5759 5757 5755 5754 5752 5750 5748 5745 5743 5741 5739 5737 5735 5733 5731 5728 5726 5724 5722 5719 5716 5713 5710 5707 5704 5701 5697 5693 5689 5686 5682 5679 5676 5673 5670 5666 5661 5657 5652 5647 5643 5637 5632 5626 5621 5619 5617 5613 5606 5599 5593 5588 5582 5574 5568 5562 5557 5551 5546 5540 5534 5529 5523
5799 5797 5796 5794 5792 5791 5789 5788 5786 5784 5783 5781 5779 5777 5775 5773 5771 5770 5768 5766 5764 5763 5761 5759 5757 5755 5754 5752 5750 5748 5746 5744 5742 5739 5737 5735 5733 5731 5729 5726 5724 5722 5719 5717 5714 5711 5708 5704 5701 5697 5693 5689 5686 5682 5679 5675 5672 5668 5664 5660 5656 5652 5648 5643 5638 5634 5629 5622 5615 5610 5607 5604 5600 5593 5585 5579 5572 5566 5559 5553 5548 5544 5539 5533 5527 5521 5516
5797 5795 5793 5792 5790 5789 5787 5785 5784 5782 5780 5779 5777 5775 5773 5771 5770 5768 5766 5764 5762 5761 5759 5757 5755 5754 5752 5750 5748 5746 5744 5742 5740 5738 5736 5733 5731 5729 5727 5725 5722 5719 5717 5714 5711 5708 5705 5701 5698 5693 5689 5685 5681 5678 5674 5671 5667 5663 5659 5655 5650 5646 5643 5638 5634 5629 5624 5618 5612 5605 5598 5593 5588 5584 5577 5571 5565 5558 5552 5545 5538 5532 5529 5524 5518 5512 5506
5795 5793 5791 5789 5788 5786 5784 5783 5781 5780 5778 5777 5775 5773 5771 5770 5768 5766 5764 5763 5761 5759 5757 5756 5754 5752 5750 5748 5746 5744 5742 5740 5738 5736 5733 5731 5729 5727 5725 5722 5720 5717 5714 5711 5708 5705 5701 5698 5694 5689 5684 5680 5676 5673 5669 5666 5662 5658 5653 5649 5645 5640 5636 5633 5629 5624 5618 5612 5606 5600 5593 5585 5578 5573 5568 5562 5556 5550 5544 5539 5532 5524 5518 5513 5508 5501 5494
5792 5790 5788 5787 5785 5784 5782 5781 5779 5778 5776 5775 5773 5771 5770 5768 5766 5765 5763 5761 5759 5757 5755 5753 5751 5750 5748 5746 5744 5742 5740 5738 5736 5734 5731 5729 5727 5725 5722 5720 5717 5715 5712 5708 5705 5701 5698 5694 5690 5685 5680 5676 5672 5668 5664 5660 5656 5652 5647 5643 5638 5633 5628 5624 5620 5615 5610 5603 5596 5589 5583 5577 5571 5564 5559 5554 5548 5541 5534 5527 5520 5512 5505 5499 5493 5486 5480
5789 5788 5786 5784 5783 5782 5780 5779 5777 5776 5774 5773 5771 5769 5768 5766 5765 5763 5761 5759 5757 5755 5753 5751 5750 5748 5745 5743 5741 5739 5738 5736 5733 5731 5729 5726 5724 5721 5719 5716 5714 5711 5708 5705 5701 5698 5694 5691 5686 5681 5677 5673 5669 5665 5660 5655 5650 5646 5642 5637 5631 5626 5620 5614 5609 5604 5600 5595 5589 5582 5576 5570 5564 5557 5549 5542 5536 5529 5520 5513 5505 5498 5491 5484 5478 5472 5466
5787 5786 5784 5782 5781 5779 5778 5776 5775 5773 5772 5771 5769 5767 5766 5764 5763 5761 5759 5757 5756 5754 5752 5750 5748 5746 5744 5742 5739 5737 5735 5733 5731 5728 5726 5723 5720 5718 5715 5712 5709 5706 5704 5700 5697 5693 5690 5686 5682 5677 5673 5670 5665 5660 5655 5650 5645 5640 5635 5629 5624 5618 5612 5606 5600 5593 5587 5583 5578 5572 5566 5560 5555 5549 5541 5534 5527 5520 5512 5503 5496 5488 5481 5474 5466 5459 5452
5786 5784 5782 5781 5779 5778 5776 5774 5773 5772 5770 5769 5767 5766 5764 5763 5761 5759 5758 5756 5754 5752 5750 5748 5746 5744 5742 5740 5737 5734 5732 5730 5728 5725 5722 5719 5716 5713 5710 5707 5704 5701 5698 5695 5692 5688 5685 5681 5677 5672 5668 5664 5660 5655 5649 5644 5639 5634 5628 5623 5617 5611 5605 5599 5592 5585 5578 5571 5565 5559 5552 5545 5539 5534 5528 5523 5517 5512 5505 5496 5488 5479 5471 5463 5455 5446 5437
5784 5782 5781 5779 5777 5776 5774 5773 5772 5770 5769 5767 5766 5764 5763 5761 5759 5758 5756 5754 5752 5751 5748 5746 5744 5742 5739 5737 5735 5732 5729 5727 5724 5721 5718 5715 5712 5709 5706 5702 5699 5696 5693 5690 5686 5683 5679 5675 5671 5666 5662 5657 5653 5648 5644 5638 5633 5627 5622 5616 5611 5605 5599 5593 5586 5579 5572 5566 5560 5552 5545 5537 5529 5521 5514 5506 5500 5494 5487 5481 5473 5466 5458 5450 5442 5432 5422
5783 5781 5779 5778 5776 5775 5773 5772 5770 5769 5767 5766 5765 5763 5761 5760 5758 5756 5754 5752 5751 5749 5746 5744 5742 5740 5737 5734 5732 5729 5726 5723 5720 5717 5714 5711 5708 5705 5702 5699 5695 5692 5688 5685 5681 5677 5674 5669 5665 5660 5656 5651 5647 5642 5638 5633 5627 5622 5616 5610 5604 5598 5592 5586 5580 5572 5564 5558 5553 5547 5540 5532 5523 5514 5505 5496 5487 5479 5470 5462 5454 5447 5439 5431 5423 5414 5404
5781 5779 5778 5776 5775 5773 5772 5771 5769 5768 5766 5765 5763 5761 5760 5758 5756 5754 5752 5750 5748 5746 5744 5741 5739 5736 5734 5731 5728 5725 5722 5719 5716 5713 5710 5707 5704 5701 5697 5694 5691 5687 5683 5680 5676 5672 5668 5663 5658 5653 5649 5644 5640 5635 5631 5626 5621 5615 5609 5602 5596 5591 5584 5578 5572 5567 5559 5550 5542 5536 5529 5522 5515 5508 5499 5488 5478 5468 5458 5447 5436 5426 5418 5410 5402 5393 5384
5780 5778 5776 5775 5773 5772 5771 5769 5768 5766 5765 5763 5761 5759 5757 5755 5753 5751 5749 5746 5744 5742 5740 5738 5735 5733 5730 5727 5724 5721 5718 5715 5712 5708 5705 5702 5699 5696 5693 5689 5686 5682 5678 5674 5670 5665 5661 5656 5652 5647 5643 5638 5633 5628 5624 5619 5614 5609 5603 5596 5588 5582 5576 5570 5563 5557 5551 5543 5534 5526 5519 5511 5504 5497 5488 5477 5464 5453 5444 5433 5422 5410 5401 5393 5385 5377 5368
5778 5777 5775 5773 5772 5770 5769 5768 5766 5764 5763 5761 5759 5757 5755 5753 5751 5749 5746 5744 5741 5739 5736 5734 5732 5729 5726 5723 5720 5717 5714 5711 5708 5704 5701 5697 5694 5691 5688 5684 5681 5677 5673 5668 5664 5659 5654 5650 5645 5641 5637 5633 5628 5622 5617 5611 5605 5600 5595 5589 5581 5573 5567 5561 5554 5547 5540 5533 5526 5518 5509 5500 5491 5483 5474 5463 5452 5440 5430 5420 5410 5399 5389 5381 5373 5365 5356
5776 5775 5773 5771 5770 5769 5767 5766 5764 5762 5760 5758 5756 5754 5752 5750 5748 5746 5743 5741 5738 5736 5733 5730 5727 5724 5721 5718 5715 5712 5708 5706 5703 5699 5696 5693 5690 5686 5683 5679 5675 5671 5667 5662 5657 5653 5648 5643 5639 5635 5631 5626 5621 5615 5609 5602 5595 5589 5583 5578 5573 5565 5558 5551 5544 5536 5529 5521 5514 5506 5497 5487 5478 5468 5459 5450 5441 5430 5419 5409 5399 5388 5378 5370 5362 5354 5346
5775 5773 5771 5770 5768 5766 5765 5763 5761 5759 5757 5755 5753 5751 5749 5747 5744 5742 5739 5736 5734 5731 5728 5725 5722 5719 5716 5713 5710 5707 5704 5701 5698 5695 5692 5688 5685 5681 5677 5673 5669 5665 5661 5656 5651 5647 5642 5637 5632 5628 5623 5617 5612 5607 5600 5593 5586 5579 5572 5566 5561 5556 5549 5542 5534 5526 5518 5510 5502 5493 5484 5473 5463 5454 5445 5437 5430 5421 5411 5401 5391 5380 5370 5361 5353 5345 5336
5772 5771 5769 5767 5766 5764 5762 5760 5759 5756 5754 5752 5750 5748 5745 5743 5740 5738 5735 5732 5729 5726 5723 5720 5717 5714 5711 5708 5705 5702 5699 5696 5693 5690 5687 5683 5679 5675 5671 5667 5663 5658 5654 5649 5644 5639 5635 5630 5625 5620 5615 5609 5603 5597 5591 5584 5577 5570 5564 5557 5551 5545 5538 5531 5524 5516 5507 5498 5488 5480 5470 5461 5452 5443 5434 5426 5420 5413 5403 5393 5384 5374 5365 5356 5348 5340 5332
5770 5769 5767 5765 5763 5761 5759 5757 5755 5753 5751 5748 5746 5744 5741 5738 5736 5733 5730 5727 5724 5721 5718 5715 5712 5710 5707 5704 5701 5698 5695 5692 5689 5685 5681 5678 5674 5670 5665 5661 5657 5651 5646 5641 5636 5631 5626 5622 5618 5613 5607 5600 5593 5587 5581 5574 5568 5561 5554 5547 5540 5533 5526 5519 5511 5503 5494 5485 5476 5467 5459 5450 5442 5433 5425 5418 5411 5404 5396 5386 5377 5369 5361 5352 5344 5336 5329
5768 5766 5764 5762 5760 5758 5756 5753 5751 5749 5747 5745 5742 5740 5737 5734 5732 5729 5726 5723 5720 5717 5714 5711 5708 5705 5702 5700 5697 5694 5691 5687 5684 5680 5676 5671 5667 5663 5659 5655 5650 5645 5640 5634 5629 5624 5619 5614 5610 5605 5599 5592 5585 5578 5572 5565 5557 5550 5543 5536 5529 5521 5514 5506 5498 5491 5483 5474 5465 5457 5450 5442 5433 5425 5418 5410 5402 5394 5387 5379 5371 5363 5356 5348 5340 5332 5326
5765 5763 5761 5759 5757 5755 5752 5750 5748 5745 5743 5741 5738 5736 5733 5730 5728 5725 5722 5719 5716 5713 5710 5707 5704 5701 5698 5695 5692 5689 5686 5682 5678 5674 5670 5666 5661 5657 5653 5648 5643 5638 5634 5628 5623 5618 5613 5607 5601 5596 5590 5584 5577 5569 5561 5554 5546 5539 5532 5525 5518 5511 5503 5495 5488 5481 5474 5467 5458 5450 5442 5434 5426 5417 5409 5401 5393 5386 5380 5374 5366 5358 5351 5344 5336 5328 5321
5762 5760 5758 5756 5754 5752 5749 5747 5745 5742 5740 5737 5734 5732 5729 5727 5724 5721 5718 5715 5712 5709 5706 5703 5700 5697 5694 5690 5687 5683 5680 5676 5673 5669 5665 5660 5656 5651 5646 5641 5636 5631 5627 5623 5618 5612 5606 5600 5592 5585 5579 5574 5567 5560 5551 5543 5535 5527 5520 5513 5506 5499 5492 5486 5479 5473 5467 5461 5452 5444 5436 5428 5419 5411 5403 5395 5387 5380 5373 5368 5362 5354 5345 5338 5331 5323 5316
5759 5757 5755 5753 5750 5748 5745 5743 5740 5738 5735 5733 5730 5728 5725 5722 5719 5716 5713 5710 5707 5704 5701 5698 5695 5692 5688 5685 5681 5678 5675 5671 5668 5663 5659 5654 5650 5645 5640 5635 5630 5624 5619 5616 5613 5607 5601 5593 5586 5578 5570 5562 5555 5548 5539 5531 5524 5518 5511 5504 5496 5490 5484 5478 5472 5466 5460 5454 5446 5438 5430 5422 5414 5406 5398 5390 5382 5374 5366 5359 5353 5347 5339 5331 5324 5318 5312